STARLINK-36911

Last updated on Mon Mar 30 2026 00:02:05 GMT+0000 (Coordinated Universal Time)

1 68008U 26039Y 26088.16668981 -.02168970 00000+0 -79764-1 0 9999 2 68008 42.9999 298.9498 0001680 260.4403 38.2226 15.30734104 6006
UTC large
Height (km)
Speed (km/s)
/
Latitude / Longitude
Inclination (degrees)
Orbital Period (minutes)
Azimuth
Elevation
Range (km)
Doppler Factor

Next 0 passes for location: London (51.5072 / 0.1276)

Sorry there are no passes over London.